Date String (YYYY-MM-DD hh:mm:ss) UTC,Instrument flags,absolute air pressure of the measurement (hPa),sample flow rate (lpm),inlet stack bypass flow (lpm),air temperature of the measurement (°C),ambient temperature measured by the external sensor (°C),aerosol sample conditioner tube jacket temperature (°C),OPC LED temperature (°C),internal box temperature (°C),relative humidity of the measurement (%),span deviation,mass concentration of particles derived from Lorenz-Mie calculation of OPC scattering (μg/m³),mass concentration of particles derived from Lorenz-Mie calculation of OPC scattering (μg/m³),mass concentration of particles derived from Lorenz-Mie calculation of OPC scattering (μg/m³)
DateTimeUTC,F1_M11,P_M11,Q1_M11,Q2_M11,T1_M11,T2_M11,T3_M11,T4_M11,T5_M11,U1_M11,ZSPAN_M11,X2_M11,X0_M11,X1_M11
2023-07-06 01:00:00,SystemResetWarning,0835.5,5.01,000.00,030.5,028.6,000.0,038.9,031.6,33.9,-002.4,0006.26,0009.00,0006.02
2023-07-06 01:01:00,SystemResetWarning,0835.6,5.01,000.00,030.6,028.6,000.0,038.9,031.7,33.9,-002.2,0006.25,0008.99,0006.02
2023-07-06 01:02:00,SystemResetWarning,0835.6,5.00,000.00,030.6,028.7,000.0,038.9,031.7,33.9,-001.6,0006.21,0008.80,0005.98
2023-07-06 01:03:00,SystemResetWarning,0835.8,4.99,000.00,030.6,028.7,000.0,038.9,031.7,33.9,-001.3,0006.17,0008.79,0005.93
2023-07-06 01:04:00,SystemResetWarning,0835.9,4.99,000.00,030.6,028.7,000.0,039.0,031.7,34.0,-001.5,0006.13,0008.73,0005.90
2023-07-06 01:05:00,SystemResetWarning,0835.9,5.01,000.00,030.6,028.8,000.0,039.0,031.7,33.9,-001.3,0006.11,0008.60,0005.91
2023-07-06 01:06:00,SystemResetWarning,0835.8,5.01,000.00,030.6,028.8,000.0,039.0,031.7,33.9,-001.0,0006.14,0008.55,0005.96
2023-07-06 01:07:00,SystemResetWarning,0835.8,5.00,000.00,030.6,028.8,000.0,039.0,031.7,34.0,-001.3,0006.19,0008.56,0006.02
2023-07-06 01:08:00,SystemResetWarning,0835.8,5.00,000.00,030.6,028.8,000.0,039.0,031.8,34.0,-001.7,0006.29,0008.65,0006.12
2023-07-06 01:09:00,SystemResetWarning,0835.7,5.00,000.00,030.6,028.8,000.0,039.0,031.8,34.0,-001.9,0006.37,0008.73,0006.18
2023-07-06 01:10:00,SystemResetWarning,0835.5,5.00,000.00,030.6,028.9,000.0,039.0,031.8,33.9,-002.1,0006.42,0008.79,0006.23
2023-07-06 01:11:00,SystemResetWarning,0835.5,5.00,000.00,030.6,028.9,000.0,039.0,031.8,33.8,-001.9,0006.49,0008.87,0006.30
2023-07-06 01:12:00,SystemResetWarning,0835.2,4.99,000.00,030.6,028.9,000.0,039.0,031.8,33.9,-002.0,0006.57,0008.99,0006.38
2023-07-06 01:13:00,SystemResetWarning,0835.2,5.00,000.00,030.6,028.9,000.0,039.0,031.8,33.8,-002.1,0006.68,0009.09,0006.47
2023-07-06 01:14:00,SystemResetWarning,0835.2,5.00,000.00,030.6,028.9,000.0,039.0,031.8,33.8,-002.1,0006.81,0009.19,0006.58
2023-07-06 01:15:00,SystemResetWarning,0835.1,5.00,000.00,030.6,028.9,000.0,039.0,031.8,33.8,-001.9,0006.95,0009.47,0006.72
2023-07-06 01:16:00,SystemResetWarning,0835.1,5.00,000.00,030.6,028.9,000.0,039.1,031.8,33.8,-002.0,0007.07,0010.16,0006.84
2023-07-06 01:17:00,SystemResetWarning,0835.2,5.00,000.00,030.6,028.9,000.0,039.1,031.8,33.9,-002.4,0007.15,0010.27,0006.91
2023-07-06 01:18:00,SystemResetWarning,0835.3,5.00,000.00,030.6,028.9,000.0,039.1,031.9,33.9,-002.3,0007.21,0010.35,0006.96
2023-07-06 01:19:00,SystemResetWarning,0835.3,5.00,000.00,030.6,028.9,000.0,039.1,031.9,33.9,-002.3,0007.30,0010.53,0007.01
2023-07-06 01:20:00,SystemResetWarning,0835.2,5.01,000.00,030.6,029.0,000.0,039.1,031.8,33.9,-002.1,0007.35,0010.62,0007.07
2023-07-06 01:21:00,SystemResetWarning,0835.2,4.99,000.00,030.6,029.0,000.0,039.1,031.9,33.9,-002.1,0007.43,0010.70,0007.14
2023-07-06 01:22:00,SystemResetWarning,0835.0,5.00,000.00,030.6,029.0,000.0,039.1,031.9,33.8,-002.2,0007.54,0010.84,0007.23
2023-07-06 01:23:00,SystemResetWarning,0835.0,5.00,000.00,030.6,029.0,000.0,039.1,031.9,33.8,-002.4,0007.67,0011.01,0007.34
2023-07-06 01:24:00,SystemResetWarning,0835.0,5.00,000.00,030.6,029.0,000.0,039.1,031.9,33.8,-002.6,0007.76,0011.10,0007.44
2023-07-06 01:25:00,SystemResetWarning,0835.1,5.00,000.00,030.6,029.0,000.0,039.1,031.9,33.8,-002.6,0007.83,0011.20,0007.51
2023-07-06 01:26:00,SystemResetWarning,0835.2,5.00,000.00,030.6,029.0,000.0,039.1,031.9,33.8,-002.7,0007.90,0011.35,0007.57
2023-07-06 01:27:00,SystemResetWarning,0835.2,5.00,000.00,030.6,029.1,000.0,039.1,032.0,33.8,-002.5,0007.95,0010.80,0007.60
2023-07-06 01:28:00,SystemResetWarning,0835.3,5.00,000.00,030.6,029.1,000.0,039.1,032.0,33.7,-002.3,0007.99,0011.44,0007.65
2023-07-06 01:29:00,SystemResetWarning,0835.3,5.00,000.00,030.6,029.1,000.0,039.1,032.0,33.7,-002.2,0008.03,0011.72,0007.70
2023-07-06 01:30:00,SystemResetWarning,0835.6,5.00,000.00,030.6,029.1,000.0,039.1,032.0,33.7,-002.1,0008.07,0011.80,0007.76
2023-07-06 01:31:00,SystemResetWarning,0835.8,4.99,000.00,030.7,028.9,000.0,039.1,032.0,33.7,-002.0,0008.12,0011.87,0007.80
2023-07-06 01:32:00,SystemResetWarning,0835.9,4.99,000.00,030.6,026.9,000.0,039.0,031.8,33.7,-002.0,0008.16,0011.93,0007.83
2023-07-06 01:33:00,SystemResetWarning,0835.9,5.00,000.00,030.5,025.7,000.0,038.8,031.6,34.0,-002.0,0008.16,0011.94,0007.85
2023-07-06 01:34:00,SystemResetWarning,0835.9,5.02,000.00,030.4,025.5,000.0,038.8,031.2,34.2,-001.8,0008.18,0011.98,0007.86
2023-07-06 01:35:00,SystemResetWarning,0835.9,4.99,000.00,030.2,025.8,000.0,038.8,031.1,34.6,-001.5,0008.21,0011.99,0007.89
2023-07-06 01:36:00,SystemResetWarning,0835.9,5.00,000.00,030.1,026.3,000.0,038.8,031.1,34.7,-001.3,0008.27,0012.05,0007.94
2023-07-06 01:37:00,SystemResetWarning,0835.9,5.01,000.00,030.1,026.7,000.0,038.8,031.2,34.8,-001.0,0008.30,0012.03,0007.96
2023-07-06 01:38:00,SystemResetWarning,0836.0,5.00,000.00,030.0,027.0,000.0,038.8,031.2,34.9,-001.1,0008.29,0011.99,0007.96
2023-07-06 01:39:00,SystemResetWarning,0836.1,5.00,000.00,030.0,027.3,000.0,038.8,031.3,34.8,-001.1,0008.32,0011.38,0007.98
2023-07-06 01:40:00,SystemResetWarning,0836.1,5.00,000.00,030.0,027.6,000.0,038.7,031.3,34.8,-001.1,0008.34,0011.16,0007.99
2023-07-06 01:41:00,SystemResetWarning,0836.1,4.99,000.00,030.0,027.8,000.0,038.7,031.3,34.8,-001.1,0008.34,0011.40,0007.98
2023-07-06 01:42:00,SystemResetWarning,0836.1,5.00,000.00,030.0,028.0,000.0,038.7,031.4,34.9,-001.5,0008.33,0011.75,0007.99
2023-07-06 01:43:00,SystemResetWarning,0836.1,4.99,000.00,030.0,028.1,000.0,038.7,031.4,34.9,-001.6,0008.32,0011.72,0007.98
2023-07-06 01:44:00,SystemResetWarning,0836.2,4.99,000.00,030.0,028.2,000.0,038.7,031.4,34.9,-001.5,0008.30,0011.70,0007.96
2023-07-06 01:45:00,SystemResetWarning,0836.2,4.99,000.00,030.0,028.3,000.0,038.7,031.4,34.9,-001.6,0008.27,0011.66,0007.93
2023-07-06 01:46:00,SystemResetWarning,0836.2,5.01,000.00,030.1,028.4,000.0,038.7,031.5,34.8,-001.8,0008.24,0011.65,0007.87
2023-07-06 01:47:00,SystemResetWarning,0836.2,5.00,000.00,030.1,028.5,000.0,038.7,031.5,34.9,-002.0,0008.20,0011.67,0007.83
2023-07-06 01:48:00,SystemResetWarning,0836.2,4.99,000.00,030.1,028.6,000.0,038.7,031.5,34.8,-002.1,0008.16,0011.66,0007.78
2023-07-06 01:49:00,SystemResetWarning,0836.1,5.02,000.00,030.1,028.6,000.0,038.7,031.5,34.7,-002.1,0008.12,0011.59,0007.75
2023-07-06 01:50:00,SystemResetWarning,0836.0,5.01,000.00,030.1,028.6,000.0,038.7,031.6,34.8,-002.2,0008.07,0011.55,0007.71
2023-07-06 01:51:00,SystemResetWarning,0835.7,4.99,000.00,030.1,028.7,000.0,038.7,031.6,34.8,-002.3,0008.00,0011.69,0007.64
2023-07-06 01:52:00,SystemResetWarning,0835.4,4.99,000.00,030.1,028.7,000.0,038.7,031.6,34.8,-002.5,0007.95,0011.56,0007.60
2023-07-06 01:53:00,SystemResetWarning,0835.3,5.00,000.00,030.1,028.7,000.0,038.7,031.6,34.8,-002.2,0007.89,0010.98,0007.55
2023-07-06 01:54:00,SystemResetWarning,0835.3,5.01,000.00,030.2,028.7,000.0,038.7,031.6,34.8,-002.1,0007.87,0011.18,0007.51
2023-07-06 01:55:00,SystemResetWarning,0835.3,5.00,000.00,030.2,028.8,000.0,038.7,031.6,34.7,-002.1,0007.88,0011.36,0007.51
2023-07-06 01:56:00,SystemResetWarning,0835.2,5.01,000.00,030.2,028.8,000.0,038.7,031.6,34.7,-002.0,0007.86,0011.26,0007.50
2023-07-06 01:57:00,SystemResetWarning,0835.4,5.00,000.00,030.2,028.8,000.0,038.7,031.7,34.7,-002.0,0007.84,0011.20,0007.50
2023-07-06 01:58:00,SystemResetWarning,0835.6,5.00,000.00,030.2,028.8,000.0,038.7,031.7,34.7,-001.6,0007.81,0011.09,0007.50
2023-07-06 01:59:00,SystemResetWarning,0835.8,5.00,000.00,030.2,028.8,000.0,038.7,031.7,34.7,-001.7,0007.80,0011.04,0007.52
